Location: Cuiry
(49.3858°N, 3.7708°E)
Time: 00:13:27
(UTC+00:00)

CBERS-1 - Pass Details

Date: 12 January 2026
Orbit: 765 x 772 km, 98.9° (Epoch: 9 February)

Event Time Altitude Azimuth Distance (km) Brightness Sun altitude
Rises 16:42:18 0° 164° (SSE) 3,226 7.4 -5.4°
Reaches altitude 10° 16:44:36 10° 165° (SSE) 2,303 6.7 -5.7°
Maximum altitude 16:49:41 85° 255° (WSW) 777 4.1 -6.5°
Drops below altitude 10° 16:54:48 10° 344° (NNW) 2,316 6.4 -7.2°
Sets 16:57:07 0° 345° (NNW) 3,246 7.1 -7.6°
